Wind_Speed
29 28 27 26 25 25 25 25 25 25 24 24 23 25 26 27 27 27 26 25 24 24 24 25 25 27 29 31 33 35 35 33 31 28 25 22 20 18 18 17 17 17 17 16 16 15 14 14 13 13 13 13 13 12 12 12 12 12 11 11 11 11 11 11 11 11 11 11 11 11 12 12 13 13 13 12 12 12 12 12 12 13 13 13 13 13
28 28 27 26 26 25 25 25 25 25 25 25 25 25 27 28 29 29 28 27 27 26 26 26 27 29 31 32 34 34 34 32 29 26 23 21 20 19 18 17 17 16 16 16 15 14 14 13 13 13 13 13 12 12 12 12 12 12 11 11 11 11 11 11 11 11 11 11 11 12 12 12 12 13 13 13 12 12 12 12 12 13 13 13 13 13
28 27 27 26 26 26 26 26 26 25 25 25 25 26 27 28 29 30 30 29 29 28 28 28 28 29 31 32 33 33 32 30 27 25 23 21 20 19 18 17 16 16 16 15 14 14 13 13 13 13 12 12 12 12 12 12 12 12 11 11 11 11 11 11 11 11 11 11 11 12 12 12 12 13 13 13 13 13 13 13 13 13 13 13 13 13
28 27 27 27 26 26 26 26 25 25 25 24 24 26 28 29 29 30 30 30 29 29 29 29 29 29 30 30 31 30 29 27 25 23 22 21 19 18 17 16 16 15 15 14 14 13 13 13 13 13 12 12 12 12 12 12 12 11 11 11 11 11 11 11 11 11 11 11 12 12 12 12 12 12 13 13 13 13 13 13 13 13 13 13 13 13
28 28 28 27 27 27 27 26 26 25 25 24 25 26 28 29 30 31 31 31 31 30 30 29 28 28 28 29 29 28 26 24 22 21 20 19 18 17 16 16 15 14 14 13 13 13 13 13 13 12 12 12 12 12 12 12 11 11 11 11 12 11 11 11 11 11 12 12 12 12 12 12 12 12 12 13 13 13 13 13 13 13 13 13 13 13
28 28 28 28 28 27 27 27 27 27 26 26 27 27 29 30 32 33 33 33 33 32 31 30 29 28 28 27 27 26 24 22 20 19 19 18 17 16 16 15 14 14 13 13 13 13 13 13 13 12 12 12 12 12 12 11 11 11 11 12 11 11 11 11 12 12 12 12 12 12 12 12 12 12 12 12 12 12 12 12 13 13 13 13 13 13
29 28 28 28 28 28 28 28 28 28 28 28 29 29 30 32 33 34 34 35 34 33 31 30 29 28 27 26 25 23 21 20 19 18 17 17 16 15 15 14 14 13 13 13 13 13 13 13 12 12 12 12 12 12 12 11 11 11 12 12 12 12 12 12 12 12 12 12 12 12 12 12 12 12 12 12 12 12 12 12 12 13 13 13 13 13
29 29 28 28 28 28 29 29 29 29 29 30 30 31 32 32 33 33 33 34 33 32 30 29 28 27 26 24 23 21 19 18 17 17 16 15 15 14 14 14 14 14 14 13 13 13 12 12 12 12 12 12 12 12 11 11 12 12 12 12 12 12 12 12 12 12 12 12 12 12 12 12 12 12 12 12 12 12 12 12 12 13 13 13 13 13
29 29 29 28 28 29 29 29 29 29 30 30 31 31 31 32 32 31 31 31 31 30 29 28 27 25 24 22 21 19 18 17 16 16 15 14 14 14 14 14 14 14 13 13 13 12 12 12 12 12 12 12 12 12 12 12 12 12 12 12 11 12 12 12 12 12 12 12 11 11 11 11 11 11 11 11 12 12 12 12 12 12 13 13 13 13
29 29 29 29 28 29 29 29 29 29 30 30 30 30 30 30 30 30 29 29 28 28 27 26 25 24 22 21 19 18 17 16 15 15 14 14 14 14 14 14 14 13 13 13 12 12 12 12 12 12 12 12 12 12 11 12 11 11 11 11 11 12 12 12 12 11 11 11 11 11 11 11 11 11 11 11 12 12 12 12 12 12 13 13 13 13
29 29 29 29 29 29 29 29 29 30 30 30 30 30 29 29 28 28 28 27 27 26 26 25 23 22 20 19 18 17 16 15 15 15 14 15 15 15 15 14 13 13 13 12 12 12 12 12 12 12 12 12 12 12 11 11 11 11 11 11 11 11 11 11 11 11 11 11 11 11 11 11 11 11 11 11 12 12 12 12 12 12 12 13 13 13
29 29 29 29 29 29 29 29 29 29 30 29 29 29 28 28 27 27 26 26 25 24 23 23 22 20 19 18 17 16 16 15 15 15 15 15 15 15 14 13 13 13 12 12 12 12 12 12 12 12 12 12 12 12 11 11 11 11 11 11 11 11 11 11 11 11 11 11 11 11 11 11 11 11 11 12 12 12 12 12 12 12 12 13 13 13
29 29 29 29 29 29 29 29 29 29 29 29 28 28 27 27 27 26 25 24 23 22 22 21 20 19 18 18 17 17 16 16 16 16 16 15 15 14 13 13 12 12 12 12 12 12 12 12 12 12 12 12 12 11 11 11 11 11 11 11 11 11 11 11 11 11 11 11 11 11 11 11 11 12 12 12 12 12 12 12 12 13 13 13 13 13
29 29 29 29 29 29 29 29 29 29 29 28 28 27 27 26 26 25 24 23 22 21 20 20 19 18 18 18 17 17 17 17 17 16 16 15 14 13 12 12 12 12 12 12 12 12 12 12 12 12 12 11 11 11 11 11 11 11 11 11 11 11 11 11 11 11 11 11 11 11 12 12 12 12 12 12 12 12 13 13 13 13 13 13 13 14
29 29 30 29 29 29 29 29 29 29 28 27 27 27 26 25 24 23 22 21 21 20 19 19 18 18 18 18 18 17 17 17 16 15 14 14 13 13 12 12 12 12 12 12 12 12 12 12 12 12 12 12 11 11 11 11 11 11 11 11 11 11 11 11 11 11 12 12 12 12 12 12 12 12 13 13 13 13 13 13 13 14 14 14 14 14
29 30 30 30 29 29 29 29 29 28 27 27 26 26 25 24 23 22 21 20 20 19 19 18 18 18 18 18 18 17 17 16 15 14 13 13 12 12 12 12 12 13 13 12 12 12 12 12 12 12 12 12 12 12 12 12 12 12 12 12 12 12 12 12 12 12 12 12 12 12 12 13 13 13 13 13 13 14 14 14 14 14 14 14 15 15
29 30 30 30 30 29 29 29 28 27 27 26 25 24 24 23 22 21 20 19 19 19 19 19 18 18 18 18 17 16 16 15 14 13 13 13 12 12 12 12 12 13 13 12 12 12 12 12 12 12 12 12 12 12 12 12 12 12 12 12 12 12 12 12 12 12 13 13 13 13 13 13 13 14 14 14 14 14 14 15 15 15 15 15 15 16
29 29 30 30 30 29 29 28 28 27 26 25 24 23 23 22 21 20 19 19 19 19 19 19 18 18 18 17 16 16 15 14 13 13 13 12 12 12 12 12 13 13 13 13 12 12 12 12 12 12 12 13 13 13 13 13 12 12 12 12 13 13 13 13 13 13 13 13 13 14 14 14 14 14 14 15 15 15 15 15 15 16 16 16 16 16
29 29 30 30 30 29 29 28 27 26 25 24 23 22 21 21 20 19 19 19 19 19 18 18 18 17 16 16 15 15 14 13 13 13 13 12 12 12 12 13 13 13 13 13 12 12 12 13 13 13 13 13 13 13 13 13 13 13 13 13 13 13 13 13 13 14 14 14 14 14 14 15 15 15 15 15 15 15 16 16 16 16 17 17 17 17
29 29 29 30 30 29 28 27 26 25 24 23 22 21 20 20 20 19 19 19 18 18 18 17 16 15 15 14 14 14 14 13 13 13 12 12 12 12 13 13 13 13 13 13 12 12 13 13 13 13 13 13 13 13 13 13 13 13 13 13 13 14 14 14 14 14 14 14 15 15 15 15 15 15 16 16 16 16 16 16 17 17 17 18 18 18
29 29 29 29 29 28 27 26 25 24 23 22 21 20 20 20 19 19 19 18 17 17 16 15 15 14 14 14 14 14 13 13 13 12 12 12 12 13 13 13 13 13 13 13 13 13 13 13 13 13 14 14 14 14 14 14 14 14 14 14 14 14 14 14 14 15 15 15 15 15 16 16 16 16 16 16 16 17 17 17 17 18 18 19 19 19
29 29 29 28 28 27 27 26 25 24 23 22 21 20 19 19 19 18 17 17 16 15 15 14 13 13 14 14 14 14 13 13 13 12 13 12 13 13 13 13 13 13 13 13 13 13 13 13 14 14 14 14 14 14 14 14 14 14 14 14 15 15 15 15 15 15 15 16 16 16 16 16 16 17 17 17 17 17 17 18 18 18 19 19 20 20
28 28 28 27 27 26 26 25 24 23 22 21 20 19 19 18 18 17 16 16 15 14 13 13 13 14 15 15 14 14 13 13 13 13 13 12 13 13 13 13 13 13 13 13 13 13 13 14 14 14 14 14 14 14 14 14 15 15 15 15 15 15 15 15 16 16 16 16 16 16 17 17 17 17 17 17 18 18 18 18 19 19 20 20 20 20
28 27 27 26 26 25 25 24 23 22 21 20 19 19 18 17 16 16 15 15 14 13 12 12 13 15 15 15 14 14 13 13 13 13 13 13 13 13 13 13 13 13 13 13 13 13 13 14 14 14 14 14 14 14 15 15 15 15 15 15 15 16 16 16 16 16 16 17 17 17 17 17 18 18 18 18 18 19 19 19 19 20 20 20 20 21
27 26 26 25 25 24 23 23 22 21 20 19 18 17 16 15 15 15 14 14 13 12 12 13 14 15 15 15 14 13 13 13 13 13 13 13 13 13 13 13 13 13 13 13 13 13 13 14 14 14 14 14 14 15 15 15 15 15 15 16 16 16 16 16 16 17 17 17 17 17 18 18 18 18 19 19 19 19 19 20 20 20 20 20 21 21
26 25 25 24 24 23 23 22 21 20 19 18 17 16 15 14 14 13 13 12 11 12 13 14 15 15 15 14 14 13 13 13 13 13 13 13 13 13 13 13 13 13 13 13 13 13 13 14 14 14 14 14 14 15 15 15 15 15 16 16 16 16 17 17 17 17 17 17 18 18 18 18 19 19 19 19 19 20 20 20 20 20 20 20 20 21
25 25 24 24 23 22 22 21 20 19 17 16 15 14 13 13 12 12 11 11 11 13 14 15 15 15 15 14 14 13 13 13 13 13 13 13 13 13 13 13 13 13 13 13 13 13 13 13 14 14 14 14 14 15 15 15 15 15 16 16 16 16 17 17 17 17 17 18 18 18 18 19 19 19 19 20 20 20 20 20 20 20 20 20 20 21
24 23 23 23 22 21 21 20 19 18 17 16 15 14 13 13 13 12 12 12 13 14 16 16 15 15 14 14 14 13 13 13 13 13 13 13 13 13 13 13 13 13 13 13 13 13 13 13 14 14 14 14 14 15 15 15 15 15 16 16 16 17 17 17 17 18 18 18 18 18 19 19 19 19 19 20 20 20 20 20 20 20 20 21 21 21
23 22 22 21 21 20 20 19 18 17 16 16 15 14 14 14 14 14 14 14 15 16 16 16 15 14 14 14 14 13 13 13 13 13 13 12 12 13 13 13 13 13 13 13 13 13 13 13 13 14 14 14 14 14 15 15 15 15 16 16 16 17 17 17 18 18 18 18 18 19 19 19 19 19 19 19 19 19 19 20 20 20 21 21 21 21
21 21 20 20 19 19 18 17 17 17 17 16 16 15 15 15 15 15 14 15 16 16 16 15 15 14 14 14 13 13 13 13 13 13 12 12 12 12 13 13 13 13 12 12 13 13 13 13 13 13 14 14 14 15 15 15 15 16 16 16 17 17 17 18 18 18 18 18 19 19 19 19 19 19 19 19 19 19 19 20 20 20 21 21 21 21
20 19 19 18 18 17 17 17 17 17 17 16 16 16 16 15 15 15 15 16 16 16 15 15 14 14 14 14 13 13 12 12 12 12 12 12 12 12 12 12 12 12 12 12 12 12 13 13 14 14 14 14 15 15 15 15 16 16 16 17 17 18 18 18 18 18 18 19 19 19 19 19 19 19 19 19 19 19 19 20 20 20 21 21 21 21
18 18 17 17 16 16 16 17 17 17 16 16 16 16 16 15 15 16 16 16 16 15 15 14 14 14 14 13 13 12 12 12 12 12 12 12 12 12 12 12 12 12 12 12 12 12 13 13 14 14 14 15 15 15 16 16 16 16 17 17 18 18 18 18 18 18 19 19 19 19 19 19 19 19 19 19 19 19 19 19 20 20 20 20 20 20
17 16 16 15 16 16 16 17 17 16 16 16 16 16 16 16 16 16 16 16 15 15 14 14 14 14 13 13 13 12 12 12 12 12 11 11 12 12 12 12 12 12 12 12 12 13 13 13 14 14 15 15 15 16 16 16 16 16 17 17 18 18 18 18 18 19 19 19 19 19 19 19 19 19 19 19 19 19 19 19 19 19 20 20 20 20
16 15 15 15 16 16 17 17 17 17 17 16 16 16 16 16 16 16 16 15 15 14 14 14 14 13 13 12 12 12 11 11 11 11 11 11 11 12 12 12 12 12 12 12 12 12 13 13 14 14 14 15 15 16 16 16 16 16 17 17 17 18 18 18 18 18 19 19 19 19 19 19 19 19 19 19 19 19 19 19 19 19 19 19 19 20
15 15 16 16 16 17 17 17 17 17 17 16 16 15 15 15 15 15 15 15 14 14 14 14 13 13 12 12 11 11 11 11 11 11 11 11 11 11 11 11 11 11 11 11 12 12 12 13 13 13 14 14 15 15 15 15 15 16 16 16 17 17 17 18 18 18 19 19 19 19 20 20 20 20 20 20 20 19 19 19 19 19 19 19 19 19
16 16 17 17 17 17 17 17 17 17 16 15 15 15 15 15 15 15 14 14 14 14 14 13 13 12 12 11 11 11 11 11 10 10 10 10 10 10 10 10 10 10 10 11 11 11 12 12 13 13 13 14 14 15 15 15 15 15 15 16 16 17 17 17 18 18 18 19 19 20 20 20 20 20 20 20 20 20 20 20 19 19 19 19 19 20
17 17 17 17 17 17 18 17 17 16 15 14 14 14 14 14 14 14 14 14 14 13 13 13 12 12 11 11 11 10 10 10 9 9 9 9 9 9 9 9 9 9 10 10 11 11 12 12 13 13 13 13 14 14 15 15 15 15 15 16 16 16 17 17 18 18 18 19 20 20 21 21 21 21 21 21 21 21 21 20 20 20 20 20 20 20
17 17 17 17 17 17 17 16 15 15 14 14 14 14 14 14 14 14 14 14 13 13 12 12 12 11 11 10 10 10 9 9 9 9 8 8 8 8 8 9 9 9 10 10 11 11 12 13 13 13 14 14 14 14 14 15 15 15 16 16 16 17 17 18 18 18 19 19 20 20 21 21 22 22 22 22 22 22 22 22 21 21 21 21 21 21
17 17 17 17 17 16 16 15 14 14 14 14 14 14 14 14 14 14 13 13 13 12 12 12 11 11 10 10 10 9 9 9 9 9 9 8 8 8 9 9 9 10 10 11 11 12 12 13 14 14 14 15 15 15 15 15 15 16 16 17 17 18 18 18 18 19 19 19 20 21 21 22 22 23 23 23 23 23 23 23 23 23 23 22 22 22
17 17 16 16 16 15 15 14 14 14 14 14 14 14 14 14 14 13 13 13 13 12 12 12 11 11 10 10 10 9 9 9 9 9 9 9 9 9 9 9 10 10 11 11 12 12 13 13 14 14 15 15 15 15 15 16 16 16 16 17 17 18 19 19 19 20 20 20 20 21 22 22 23 23 24 24 24 24 24 24 24 24 24 24 24 23
17 16 16 16 15 15 14 14 14 14 14 14 14 13 13 13 13 13 13 13 12 12 12 12 11 11 11 10 10 10 10 10 10 10 10 10 10 10 10 10 11 11 12 12 13 13 13 14 14 14 15 15 15 15 16 16 16 16 17 17 17 18 19 20 20 21 21 21 21 21 22 22 23 24 24 25 25 25 25 25 25 25 25 25 25 25
17 16 16 15 14 14 14 14 14 14 14 13 13 13 13 13 13 13 13 13 13 12 12 12 11 11 11 11 11 11 11 11 11 11 11 11 11 11 11 12 12 12 13 13 14 14 14 14 14 14 15 15 15 15 16 16 16 16 16 17 17 18 19 20 20 21 21 21 21 21 22 22 23 24 24 25 25 26 26 26 26 26 26 26 26 26
16 16 15 14 14 14 14 14 14 14 13 13 13 13 13 13 13 13 13 13 13 13 12 12 12 12 12 12 12 12 12 12 12 12 12 12 13 13 13 13 14 14 14 14 15 15 15 15 15 15 15 15 15 15 16 16 17 17 17 17 17 18 18 19 20 21 21 22 21 22 22 22 23 23 24 25 25 26 26 27 27 27 27 27 27 27
16 15 15 14 14 14 14 14 14 14 14 14 14 14 14 14 13 13 13 13 13 13 13 13 13 13 13 13 13 13 13 13 13 13 14 14 14 14 15 15 15 15 16 15 16 16 16 16 16 16 16 16 16 16 17 18 18 18 18 18 18 18 19 20 20 21 22 22 22 22 22 22 23 23 24 25 25 26 26 27 27 28 28 28 28 28
15 15 14 14 14 14 14 14 14 14 14 14 14 14 14 14 14 14 13 13 13 13 13 13 13 13 14 14 14 14 14 14 14 15 15 15 15 16 16 16 16 17 17 17 17 17 17 17 17 17 17 17 17 18 18 19 19 19 20 20 20 20 20 20 21 21 22 22 22 22 22 22 23 23 24 25 25 26 27 27 28 28 28 29 29 29
15 15 14 14 14 14 14 15 15 15 15 15 15 14 14 14 14 14 14 14 14 14 14 14 14 14 14 15 15 15 15 15 15 15 16 16 17 17 17 17 17 18 18 18 18 18 17 17 17 17 18 18 18 19 20 21 21 21 22 22 21 21 21 22 22 22 22 22 22 22 22 23 23 24 24 25 26 27 27 28 29 29 29 29 29 29
15 15 15 15 15 15 15 15 15 15 15 15 15 15 15 14 14 14 14 14 14 14 15 15 15 15 15 15 15 15 15 16 16 16 17 17 17 17 18 18 18 19 19 19 19 19 18 18 18 18 18 18 19 20 22 22 23 23 23 23 23 23 23 23 23 23 23 23 23 23 23 23 24 24 25 26 26 27 28 29 29 29 30 30 30 29
16 16 16 16 16 16 16 16 15 15 15 15 15 15 15 15 14 14 14 14 15 15 15 15 15 15 16 16 16 16 16 16 16 17 17 17 18 18 18 19 19 19 19 20 20 19 19 18 18 18 19 19 20 21 22 23 24 24 24 24 24 24 24 24 24 24 24 24 24 24 24 24 25 25 26 26 27 28 29 29 30 30 30 30 30 30
16 16 16 16 16 16 16 16 16 15 15 15 15 15 15 15 15 15 15 15 15 15 15 15 16 16 16 16 16 16 16 16 17 17 17 17 18 18 19 19 19 20 20 20 20 19 19 19 19 19 20 20 21 21 22 23 24 24 24 24 24 25 25 25 26 26 25 25 25 25 25 26 26 27 27 27 28 28 29 30 30 31 31 30 30 30
16 16 16 16 16 16 16 15 15 15 15 15 15 15 15 15 15 15 15 15 15 15 16 16 16 16 16 16 16 16 17 17 17 17 18 18 18 19 19 19 20 20 19 20 20 19 19 19 20 21 22 22 22 22 22 23 24 24 25 25 25 26 26 26 27 27 27 27 27 27 27 28 28 29 29 28 28 28 29 30 30 31 31 31 30 30
16 16 16 16 15 15 15 15 15 15 15 15 15 15 15 15 15 15 16 16 16 16 16 16 16 17 17 17 17 17 17 18 18 18 18 19 19 19 19 19 19 19 19 19 19 19 19 19 20 22 23 24 24 23 22 23 23 24 25 26 26 27 27 27 28 28 28 28 28 29 29 29 30 30 30 29 29 29 29 29 30 31 31 31 30 30
Wind_Direction
296 295 294 292 290 288 285 283 281 279 276 273 269 268 269 272 275 277 279 279 277 274 272 271 273 274 277 279 281 285 289 294 298 301 301 299 294 289 286 286 284 282 279 277 273 270 266 261 257 253 250 248 247 247 247 248 249 250 251 253 253 254 255 255 255 255 254 254 253 254 255 257 260 263 264 265 266 266 265 266 267 269 271 273 275 277
295 294 292 291 289 286 283 281 279 277 276 273 270 268 269 271 273 276 278 278 277 275 274 274 275 277 279 281 282 285 288 292 296 298 296 294 290 288 286 284 282 280 277 273 270 266 262 257 253 249 247 246 246 246 247 249 250 251 253 254 254 255 256 256 256 256 255 255 255 254 256 258 260 262 264 265 265 265 265 266 267 268 270 271 273 275
294 293 291 289 287 285 282 280 279 278 277 275 273 271 269 269 270 272 275 276 277 277 277 279 280 281 282 283 285 286 288 291 293 293 291 289 287 285 284 282 280 276 273 269 266 262 258 254 250 248 246 245 245 246 247 249 250 252 253 254 254 255 255 256 256 256 256 256 256 256 257 258 259 261 263 264 265 266 266 266 267 268 269 270 271 273
293 292 290 289 287 285 283 282 280 279 277 275 273 271 269 269 269 270 272 274 276 279 281 283 285 285 285 286 287 288 289 291 291 289 287 285 283 283 281 279 276 272 268 265 261 258 254 251 249 247 246 246 246 247 248 249 250 251 252 253 253 254 255 256 256 257 257 257 257 257 258 258 259 261 262 263 265 265 266 266 267 267 268 269 270 271
292 291 290 289 288 287 285 283 281 279 276 273 270 269 269 270 271 272 274 277 280 284 287 289 289 288 288 288 289 289 290 289 288 286 283 282 281 280 278 275 272 268 264 260 256 253 251 249 248 247 247 247 247 248 249 250 251 251 252 253 253 254 255 256 256 257 258 258 258 259 259 259 260 261 262 263 264 265 266 266 267 267 268 268 269 270
291 291 290 289 289 287 286 284 282 279 276 273 270 268 268 270 272 274 278 281 285 289 291 292 291 290 289 289 289 289 288 287 285 282 280 280 279 277 275 271 268 263 259 255 252 250 248 247 246 246 247 247 248 249 250 250 251 251 252 253 253 254 255 256 257 258 258 259 260 260 260 261 261 262 263 263 264 265 266 266 267 267 268 269 269 270
290 290 289 289 288 287 286 284 283 280 278 275 273 271 271 271 272 275 279 282 285 288 290 290 289 288 288 287 287 286 285 284 281 280 278 278 277 274 271 268 263 259 255 252 249 247 246 245 245 246 246 247 248 249 250 250 251 251 252 253 254 255 256 257 258 259 260 260 261 262 262 263 263 263 264 264 265 265 266 267 267 268 268 269 270 271
289 288 288 288 287 287 286 284 283 282 280 277 275 274 274 274 275 277 279 281 284 285 286 286 286 286 285 284 283 283 281 279 278 277 277 276 275 272 268 263 259 255 252 249 247 246 245 245 245 246 246 247 248 248 249 250 250 251 253 254 255 256 257 258 259 260 261 262 263 264 264 265 265 265 266 266 266 266 267 267 268 269 270 270 272 273
287 287 286 286 285 285 285 284 283 281 280 279 277 276 276 277 277 279 280 281 282 283 283 283 283 283 282 281 279 278 277 275 275 275 275 275 273 268 263 259 255 252 249 247 246 244 244 244 245 246 246 247 248 248 249 249 250 252 253 255 256 258 259 260 261 262 263 264 265 266 266 267 267 267 267 267 267 268 268 269 269 270 271 272 273 274
285 285 285 285 284 284 283 283 282 281 280 279 278 278 278 278 279 279 280 280 281 281 281 281 280 279 278 277 275 274 273 272 272 273 273 272 268 263 258 255 251 249 247 246 245 244 244 244 245 246 247 247 248 248 249 250 251 253 254 256 258 259 261 262 263 264 265 266 266 267 268 268 268 269 269 269 269 269 270 270 271 271 272 273 274 274
283 283 283 283 283 283 282 282 281 280 279 278 278 278 279 279 279 279 278 279 279 279 279 279 278 276 274 272 271 270 269 269 270 270 269 267 263 258 254 251 249 247 246 245 245 244 245 245 246 247 247 248 248 249 250 251 252 254 256 258 259 260 262 263 264 265 266 267 268 269 269 269 270 270 270 270 271 271 271 271 272 272 273 273 274 275
282 282 282 282 282 282 281 281 280 279 279 278 278 278 278 278 277 277 277 277 278 277 277 276 275 274 272 270 268 267 266 266 266 266 265 262 259 254 250 248 246 245 244 245 245 245 246 246 247 248 248 249 249 250 251 252 254 256 258 259 260 261 263 264 265 266 267 268 269 270 270 270 271 271 272 272 272 272 272 272 272 272 273 273 273 274
281 281 282 281 281 281 281 280 279 279 278 278 278 277 276 275 275 276 276 276 276 275 274 273 272 272 270 268 266 265 264 263 263 262 260 258 254 250 247 245 244 244 244 245 245 246 247 247 248 249 249 250 251 252 254 255 257 258 259 260 261 263 264 265 266 267 268 269 270 270 271 271 272 272 272 273 272 272 272 272 272 272 272 272 272 272
281 281 281 281 281 281 281 280 279 278 278 277 276 275 275 274 274 274 274 274 274 272 271 270 270 269 269 267 264 262 261 261 260 259 257 253 249 245 243 243 243 244 244 245 246 247 248 248 249 250 251 252 253 255 256 258 259 260 261 262 263 264 265 266 267 268 269 269 270 271 271 272 272 272 272 272 272 272 272 272 272 272 271 271 271 272
280 280 280 280 280 280 280 279 278 278 277 276 275 274 274 273 273 272 272 271 270 269 269 268 268 267 267 265 263 261 259 259 257 255 252 248 244 242 241 241 242 243 244 245 246 247 249 249 250 251 253 254 255 257 259 260 261 262 262 263 264 265 266 267 267 268 269 269 270 270 271 271 272 272 272 272 272 272 272 272 271 271 271 271 271 272
280 280 280 280 280 279 278 278 277 276 276 275 274 273 272 271 271 270 268 267 267 266 267 267 266 265 264 263 261 259 258 256 253 249 246 243 241 240 240 241 242 244 245 246 246 247 249 250 251 252 253 255 257 258 259 260 261 262 262 263 264 265 266 266 267 267 268 269 270 270 271 271 271 272 272 272 272 272 272 271 271 271 272 272 272 273
279 279 279 279 278 278 277 276 275 275 274 273 272 271 270 269 268 266 265 265 265 265 265 266 265 264 263 261 259 257 254 251 247 244 241 240 239 240 240 241 242 243 245 245 246 247 248 249 250 252 253 255 256 258 259 260 260 261 262 263 264 264 265 266 266 267 268 268 269 270 270 271 271 271 272 272 272 272 272 272 272 273 273 273 274 275
278 278 277 277 277 276 275 274 274 273 272 271 270 269 268 266 265 264 263 263 263 264 264 263 262 261 260 258 256 254 250 247 243 240 238 238 239 239 240 241 242 244 245 245 245 246 246 247 249 250 252 254 256 257 258 259 260 260 261 262 263 264 264 265 266 267 268 268 269 270 270 271 271 271 271 272 272 272 273 273 274 274 275 275 276 277
276 276 276 275 275 274 273 273 272 271 269 268 267 266 265 263 262 262 261 262 262 262 261 260 258 256 254 253 251 249 246 243 240 238 238 238 239 240 241 242 243 244 245 245 245 245 246 247 249 250 252 254 255 257 258 259 260 261 262 262 263 264 265 266 266 267 268 269 269 270 271 271 271 272 272 272 273 273 274 275 275 276 277 278 279 279
275 275 274 274 274 273 272 271 270 269 267 266 265 263 262 261 260 260 260 260 260 259 257 255 253 251 249 248 247 246 243 241 239 239 239 239 240 241 242 242 243 244 245 246 245 246 247 248 250 252 254 255 256 258 259 260 261 262 262 263 264 264 265 266 267 268 269 270 270 271 271 272 272 273 273 274 274 275 275 276 277 278 279 280 281 282
274 274 274 273 273 272 270 269 268 267 266 264 263 261 259 258 258 258 258 257 256 254 251 249 247 246 245 245 244 243 242 241 240 240 241 241 241 242 243 243 244 245 246 247 248 248 249 251 253 255 256 258 259 260 261 262 263 263 264 264 265 266 266 267 268 269 270 271 271 272 273 273 273 274 275 275 276 277 278 278 279 280 281 282 283 283
274 273 273 273 272 270 269 268 267 266 264 263 261 259 257 256 255 255 255 253 250 247 244 242 242 243 243 244 243 242 241 242 242 242 243 243 242 243 244 245 246 246 248 249 250 252 253 255 256 258 259 261 262 263 264 264 265 265 266 266 267 268 268 269 270 271 272 272 273 273 274 275 275 276 276 277 278 279 279 280 281 282 283 283 284 284
273 273 272 271 270 269 268 266 265 264 262 261 258 256 254 253 252 251 249 246 242 239 237 237 239 242 243 243 242 241 241 242 243 244 244 243 243 244 246 247 247 249 250 252 253 255 257 258 260 261 262 263 264 265 266 266 267 268 268 269 269 270 271 271 272 273 273 274 274 275 276 276 277 278 278 279 280 280 281 282 282 283 284 284 284 284
273 272 271 270 269 267 266 265 263 262 260 258 256 253 250 248 245 243 240 237 234 232 232 235 239 242 242 242 241 241 242 243 244 245 245 244 245 246 247 249 250 251 253 255 256 258 259 261 262 263 264 265 266 267 268 268 269 269 270 271 272 272 273 273 274 274 275 275 276 277 277 278 278 279 280 280 281 281 282 283 283 283 284 284 284 284
272 271 270 269 267 265 264 262 261 259 257 254 250 246 243 240 237 235 232 230 229 229 233 237 240 241 242 242 241 241 242 244 244 244 245 245 246 247 249 251 252 254 256 257 259 260 261 262 264 265 266 267 267 268 269 270 271 271 272 273 273 274 275 275 276 276 276 277 277 278 278 279 279 280 281 281 282 282 283 283 284 284 284 284 284 285
271 270 268 266 264 263 261 260 258 256 252 247 242 237 233 231 229 227 226 226 228 233 238 241 241 241 242 242 242 242 242 243 244 244 245 246 247 249 251 253 255 256 257 259 260 261 262 263 264 266 267 267 268 269 270 271 272 273 274 274 275 275 276 276 277 277 278 278 278 279 279 280 280 281 281 282 282 283 283 284 284 284 284 285 285 285
269 267 266 264 262 261 259 257 254 250 244 237 230 226 223 221 220 219 219 222 229 237 242 242 241 241 241 241 241 241 242 243 244 245 246 247 248 250 252 254 256 257 258 259 260 262 262 264 265 266 267 268 269 270 271 272 273 274 275 275 276 276 277 277 277 278 278 279 279 279 280 280 281 281 282 282 283 284 284 284 285 285 285 286 286 287
266 265 263 262 260 259 257 254 249 241 233 225 219 215 214 214 213 212 214 219 230 239 243 242 241 240 240 240 240 241 242 242 243 245 247 248 249 251 253 255 257 257 258 260 261 262 263 264 266 267 268 269 270 271 272 273 274 275 275 276 276 277 277 277 278 278 278 279 279 279 280 280 281 282 282 283 284 284 285 285 286 286 287 287 288 288
264 263 261 260 259 257 254 248 240 231 222 216 212 211 212 213 212 212 216 223 234 241 242 240 239 238 238 239 240 241 241 242 244 246 248 250 251 252 254 256 257 258 259 260 262 264 265 266 267 268 270 271 272 273 274 274 275 275 276 276 276 277 277 277 278 278 278 279 279 279 280 280 281 282 282 283 284 285 286 286 287 288 289 289 290 290
262 261 260 259 257 253 247 239 230 221 216 213 212 213 215 215 215 218 224 232 238 240 239 238 237 237 237 238 239 240 242 243 245 247 249 250 251 253 255 256 258 259 260 262 263 266 267 268 270 271 272 273 274 274 275 275 276 276 276 277 277 277 277 277 277 278 278 278 279 279 279 280 281 281 282 283 284 285 286 287 289 289 290 291 291 291
260 259 257 255 251 245 237 228 221 216 215 215 216 217 217 216 219 225 231 236 238 238 236 236 236 237 237 238 239 240 242 243 245 247 249 250 252 253 256 257 259 261 262 264 266 268 270 272 273 273 274 275 276 276 276 277 277 277 277 277 277 277 277 277 277 278 278 278 278 278 279 280 280 281 282 283 284 285 287 288 290 291 291 292 292 292
257 255 252 248 242 234 226 220 217 216 217 218 218 218 218 221 226 231 235 236 236 236 236 236 237 237 238 239 239 240 241 243 245 247 248 250 252 255 257 259 261 263 265 267 268 270 272 274 275 276 276 277 277 278 278 278 278 279 278 278 278 278 278 278 278 278 278 278 278 278 279 279 280 281 281 283 284 285 287 288 290 291 291 292 292 292
252 249 244 238 231 224 220 217 217 217 218 218 218 219 222 227 231 234 236 236 235 235 236 237 237 238 238 239 239 239 240 242 244 247 249 251 253 256 259 261 263 265 268 270 271 272 274 275 277 278 279 279 279 279 279 280 280 280 279 279 279 279 279 278 278 278 278 278 278 278 279 279 280 280 281 283 284 285 287 288 289 290 291 292 292 292
245 240 234 228 223 220 218 218 218 218 217 218 220 223 227 231 234 235 236 235 236 236 236 236 237 237 238 238 238 239 239 241 244 247 250 253 256 258 261 263 266 268 270 272 274 275 276 276 277 278 279 280 280 281 281 281 281 281 281 280 280 279 279 279 279 279 279 279 279 279 279 280 280 281 282 283 284 285 286 287 288 289 290 291 291 291
236 231 226 222 220 219 219 218 218 217 218 220 224 227 231 233 234 235 235 236 236 236 236 236 235 235 235 236 237 238 240 243 246 249 252 255 257 260 263 265 267 270 272 274 275 277 277 277 278 278 279 281 281 282 282 282 283 283 282 281 281 280 280 280 280 280 280 280 280 280 280 281 281 281 282 283 283 285 286 287 288 289 290 290 291 291
229 225 222 220 219 218 218 218 218 219 221 224 227 230 232 234 235 235 236 236 236 235 235 234 234 234 234 236 237 239 242 245 248 251 253 255 258 261 263 266 268 271 273 275 276 277 277 278 278 278 279 280 281 282 282 282 282 282 282 281 281 281 280 281 280 281 281 281 281 281 281 282 282 282 283 283 284 285 286 287 288 289 289 290 290 290
224 222 220 218 217 217 218 219 220 222 225 227 230 232 233 234 235 236 236 235 234 233 233 232 233 233 235 236 238 240 243 246 248 250 252 254 257 260 263 266 269 272 274 276 277 278 278 279 279 279 279 278 279 280 280 281 281 281 280 280 280 280 280 280 280 281 281 282 282 282 283 283 283 283 283 284 284 285 286 287 288 289 289 290 290 289
221 218 216 215 215 217 219 221 223 225 227 229 231 232 234 234 235 235 234 233 232 232 231 231 232 233 235 237 239 240 243 245 246 248 251 253 257 261 264 269 272 275 277 278 279 280 280 280 280 280 280 279 278 278 278 279 279 279 279 279 279 279 280 280 281 281 282 282 283 283 284 284 284 284 284 284 285 285 286 287 288 288 289 289 289 289
215 213 213 214 215 218 220 223 225 227 229 230 231 232 233 233 233 233 232 231 230 230 230 231 232 233 234 236 238 240 243 244 247 249 252 255 259 263 267 272 276 278 281 282 282 282 282 282 282 281 281 281 280 279 278 278 278 278 279 280 281 281 281 282 282 282 283 283 284 284 285 285 285 285 285 285 285 285 286 286 287 288 288 289 289 288
209 209 212 214 216 219 221 224 226 228 229 230 231 231 231 231 230 230 230 229 230 230 231 231 232 233 234 236 238 241 244 246 249 252 255 259 263 267 272 275 279 282 284 286 286 285 285 284 283 283 283 282 282 282 281 281 281 281 281 283 283 284 285 286 286 285 285 285 285 285 286 286 286 286 286 286 286 286 286 286 287 287 288 288 288 287
206 210 213 215 217 220 222 224 226 228 229 230 230 229 229 229 228 228 229 230 230 231 231 232 232 233 235 237 240 243 247 250 253 256 259 263 267 271 275 278 282 284 286 287 288 287 286 285 284 284 284 283 284 284 284 284 284 284 285 286 286 287 288 289 288 287 287 286 286 286 286 286 287 286 286 286 286 286 286 286 286 287 287 287 287 287
207 211 214 216 218 220 222 224 226 227 228 228 228 227 227 228 228 229 230 230 231 232 232 232 233 235 237 240 244 247 250 254 257 260 263 266 270 273 277 280 283 285 286 287 287 287 286 285 283 283 282 282 282 283 283 283 284 285 286 287 288 289 289 289 288 287 287 286 286 286 286 286 286 286 286 286 286 286 286 286 286 286 287 287 288 288
211 213 215 217 218 220 222 224 224 225 226 226 226 226 227 228 229 230 231 232 232 233 233 234 236 238 241 245 248 252 254 257 260 263 266 268 271 274 277 279 281 283 284 285 285 285 284 283 281 280 279 279 279 279 279 280 281 282 283 284 285 285 284 284 284 285 285 285 285 285 285 285 285 285 286 286 286 286 287 287 287 287 287 288 288 288
213 214 215 217 218 220 221 222 223 223 224 224 225 226 228 229 230 231 232 233 234 235 236 238 240 243 246 250 253 255 258 260 262 264 266 269 271 273 275 277 279 281 282 283 283 283 282 281 280 279 278 277 277 277 278 278 279 280 281 282 283 282 282 282 282 283 284 285 285 286 286 286 286 286 286 287 287 288 288 288 288 288 288 288 288 288
214 214 215 216 217 218 219 220 221 222 222 224 225 227 228 230 231 232 233 235 236 238 240 242 245 248 251 253 256 258 260 261 263 265 266 268 270 272 274 276 278 280 282 283 283 283 282 281 281 281 280 280 280 280 280 281 282 283 283 284 284 284 284 284 284 284 285 286 287 288 288 288 288 288 287 287 287 287 287 288 288 288 288 288 287 287
214 214 215 215 216 217 218 219 220 221 222 224 225 227 229 231 232 234 235 237 239 241 244 246 249 251 254 256 258 259 261 262 263 264 265 267 269 272 274 277 280 282 283 284 284 284 284 284 284 284 285 286 286 286 286 286 286 287 287 287 287 287 287 286 286 287 287 288 288 288 288 288 287 287 286 286 286 286 286 286 286 286 287 287 287 286
213 213 214 214 215 216 217 219 220 221 223 225 226 229 230 232 233 235 237 239 242 244 247 249 252 254 255 257 258 259 261 262 262 264 266 268 271 273 277 280 282 284 285 285 285 286 286 286 287 288 288 289 289 289 290 290 290 290 290 291 290 290 289 289 288 288 288 288 287 287 286 285 285 285 284 284 284 284 285 285 285 286 286 286 286 286
213 213 213 214 215 216 217 219 220 222 223 225 228 230 231 233 235 237 239 241 244 247 249 251 253 254 256 257 258 259 260 261 263 265 268 270 273 276 279 281 283 285 286 286 287 288 289 289 289 289 288 288 288 289 289 291 291 292 292 292 292 291 290 289 289 288 288 287 286 285 284 284 283 283 283 283 283 284 285 285 286 286 287 287 286 286
214 214 214 214 215 216 218 219 221 223 225 227 229 230 233 234 236 239 241 243 246 248 250 252 253 254 255 257 258 259 260 262 264 267 269 272 274 277 279 281 283 284 286 287 289 289 290 289 288 288 287 286 286 287 288 290 291 292 292 292 291 290 289 289 289 288 288 287 286 285 284 283 283 283 283 283 284 285 286 287 287 288 288 287 287 286
215 215 215 216 216 218 219 221 222 224 226 228 230 232 234 236 238 240 242 244 246 248 250 252 253 254 256 257 259 260 262 264 266 268 269 271 273 275 277 279 281 283 285 286 287 287 287 288 288 287 287 286 286 287 288 289 290 291 291 291 290 290 289 289 288 288 288 287 286 285 284 284 284 284 285 285 286 286 287 288 288 288 288 287 286 285
216 216 216 217 218 220 221 223 224 226 228 230 232 234 236 238 240 242 244 245 247 249 250 252 254 256 257 259 261 263 264 266 267 268 269 270 272 273 275 277 279 281 282 284 285 285 286 287 288 289 289 288 288 289 289 289 289 290 290 290 290 289 289 288 288 288 288 288 287 287 286 286 286 286 287 287 288 288 288 288 288 288 287 287 286 284
Height
3107 3106 3106 3105 3105 3105 3104 3104 3104 3104 3103 3103 3103 3103 3103 3102 3102 3102 3102 3101 3101 3101 3100 3100 3100 3100 3100 3099 3099 3099 3099 3099 3099 3098 3097 3097 3096 3095 3095 3095 3094 3094 3094 3094 3094 3094 3094 3094 3095 3095 3095 3095 3095 3095 3096 3096 3096 3096 3097 3097 3097 3097 3098 3098 3098 3098 3098 3098 3099 3099 3098 3098 3098 3098 3098 3098 3099 3099 3099 3098 3098 3098 3098 3098 3098 3098
3104 3104 3104 3104 3103 3103 3102 3102 3102 3102 3102 3101 3101 3101 3101 3101 3100 3100 3100 3099 3099 3099 3099 3098 3098 3098 3097 3097 3097 3097 3097 3097 3096 3096 3095 3095 3094 3094 3094 3093 3093 3093 3093 3093 3093 3093 3093 3093 3094 3094 3094 3094 3094 3094 3095 3095 3095 3095 3096 3096 3096 3096 3097 3097 3097 3097 3097 3097 3097 3098 3097 3097 3097 3097 3097 3097 3097 3097 3097 3097 3097 3097 3097 3097 3097 3097
3102 3102 3101 3101 3101 3101 3100 3100 3100 3099 3099 3099 3099 3099 3099 3099 3099 3098 3098 3098 3097 3097 3097 3097 3096 3096 3095 3095 3094 3094 3094 3094 3094 3094 3094 3093 3093 3092 3092 3092 3091 3091 3091 3091 3092 3092 3092 3092 3092 3093 3093 3093 3094 3094 3094 3094 3094 3094 3095 3095 3095 3095 3095 3096 3096 3096 3096 3096 3096 3096 3096 3096 3096 3096 3096 3096 3096 3096 3096 3096 3096 3096 3096 3096 3096 3096
3100 3099 3099 3099 3099 3099 3098 3098 3097 3097 3097 3097 3097 3097 3097 3097 3096 3096 3096 3096 3095 3095 3095 3094 3094 3094 3093 3093 3092 3092 3092 3092 3092 3092 3091 3091 3091 3090 3090 3090 3090 3090 3090 3090 3090 3090 3091 3091 3091 3092 3092 3092 3092 3093 3093 3093 3093 3094 3094 3094 3094 3094 3094 3095 3095 3095 3095 3095 3095 3095 3095 3095 3095 3095 3095 3095 3095 3095 3095 3095 3095 3095 3095 3095 3095 3095
3098 3097 3097 3096 3096 3096 3096 3095 3095 3095 3095 3095 3095 3095 3095 3094 3094 3094 3094 3094 3093 3093 3092 3092 3092 3091 3091 3090 3090 3090 3090 3090 3090 3090 3089 3089 3089 3089 3089 3089 3089 3089 3089 3089 3089 3089 3090 3090 3090 3091 3091 3091 3091 3092 3092 3092 3092 3093 3093 3093 3093 3093 3094 3094 3094 3094 3094 3094 3094 3094 3094 3094 3094 3094 3094 3094 3094 3094 3094 3094 3094 3094 3094 3094 3094 3094
3095 3095 3094 3094 3094 3094 3093 3093 3093 3092 3092 3092 3093 3093 3092 3092 3092 3092 3092 3091 3091 3091 3090 3090 3089 3089 3089 3089 3088 3088 3088 3088 3088 3088 3088 3088 3088 3087 3087 3087 3087 3088 3088 3088 3088 3088 3089 3089 3089 3089 3090 3090 3090 3091 3091 3091 3091 3091 3092 3092 3092 3092 3092 3093 3093 3093 3093 3093 3093 3093 3093 3093 3093 3093 3093 3093 3093 3093 3093 3093 3093 3093 3093 3093 3093 3093
3093 3093 3092 3092 3091 3091 3091 3090 3090 3090 3090 3090 3090 3090 3090 3090 3089 3089 3089 3089 3089 3089 3088 3088 3088 3087 3087 3087 3087 3086 3086 3086 3086 3086 3086 3086 3086 3086 3086 3086 3086 3086 3086 3087 3087 3087 3088 3088 3088 3089 3089 3089 3089 3089 3090 3090 3090 3090 3091 3091 3091 3091 3091 3091 3092 3092 3092 3092 3092 3092 3092 3092 3092 3092 3092 3092 3092 3091 3091 3092 3092 3091 3091 3091 3091 3092
3090 3090 3090 3090 3089 3089 3089 3088 3088 3088 3088 3087 3087 3087 3087 3087 3087 3087 3087 3087 3086 3086 3086 3086 3086 3085 3085 3085 3085 3085 3085 3084 3084 3084 3084 3084 3084 3084 3085 3085 3085 3085 3085 3085 3086 3086 3087 3087 3087 3088 3088 3088 3088 3089 3089 3089 3089 3089 3089 3090 3090 3090 3090 3090 3090 3090 3090 3090 3090 3090 3090 3090 3090 3090 3090 3090 3090 3090 3090 3090 3090 3090 3090 3090 3090 3090
3088 3088 3088 3088 3087 3087 3086 3086 3086 3086 3085 3085 3084 3084 3084 3085 3085 3085 3084 3084 3084 3084 3084 3084 3084 3084 3084 3084 3083 3083 3083 3083 3083 3083 3083 3083 3083 3084 3084 3084 3084 3084 3084 3084 3085 3085 3085 3086 3086 3086 3087 3087 3087 3088 3088 3088 3088 3088 3089 3089 3089 3089 3089 3089 3089 3089 3089 3089 3089 3089 3089 3089 3089 3089 3089 3089 3089 3089 3089 3089 3089 3089 3089 3089 3089 3089
3086 3086 3085 3085 3085 3085 3084 3084 3084 3084 3083 3083 3082 3082 3082 3082 3082 3082 3082 3082 3082 3082 3082 3082 3082 3082 3082 3082 3082 3082 3081 3081 3081 3081 3082 3082 3082 3082 3082 3083 3083 3083 3083 3083 3084 3084 3084 3085 3085 3085 3086 3086 3086 3086 3087 3087 3087 3087 3087 3087 3088 3088 3088 3088 3088 3088 3088 3088 3088 3088 3088 3088 3088 3088 3088 3088 3088 3088 3088 3088 3088 3088 3088 3088 3088 3088
3084 3084 3083 3083 3083 3083 3082 3082 3081 3081 3081 3081 3080 3080 3080 3080 3080 3080 3080 3080 3080 3080 3080 3080 3080 3080 3080 3080 3080 3080 3080 3080 3080 3080 3080 3081 3081 3081 3081 3081 3081 3082 3082 3082 3083 3083 3083 3084 3084 3084 3084 3085 3085 3085 3085 3086 3086 3086 3086 3086 3086 3086 3086 3086 3086 3086 3086 3087 3087 3087 3087 3087 3087 3087 3087 3087 3087 3087 3087 3087 3087 3087 3087 3087 3087 3087
3081 3081 3081 3081 3080 3080 3080 3080 3079 3079 3079 3079 3078 3078 3078 3078 3078 3078 3078 3078 3078 3079 3079 3079 3079 3079 3079 3079 3079 3079 3078 3078 3079 3079 3079 3079 3079 3079 3080 3080 3080 3080 3081 3081 3081 3082 3082 3083 3083 3083 3083 3084 3084 3084 3084 3084 3084 3085 3085 3085 3085 3085 3085 3085 3085 3085 3085 3085 3085 3085 3085 3085 3085 3085 3085 3086 3086 3086 3086 3086 3086 3086 3086 3086 3086 3086
3079 3079 3079 3078 3078 3078 3078 3077 3077 3077 3077 3076 3076 3076 3076 3076 3076 3076 3076 3076 3076 3077 3077 3077 3077 3077 3077 3077 3077 3077 3077 3077 3077 3077 3078 3078 3078 3078 3079 3079 3079 3079 3079 3080 3080 3081 3081 3081 3082 3082 3082 3082 3083 3083 3083 3083 3083 3084 3084 3084 3084 3084 3084 3084 3084 3084 3084 3084 3084 3084 3084 3084 3084 3084 3084 3084 3084 3084 3084 3084 3084 3084 3085 3085 3085 3085
3077 3077 3076 3076 3076 3076 3075 3075 3074 3074 3074 3074 3074 3074 3074 3074 3074 3074 3074 3074 3074 3075 3075 3075 3075 3075 3075 3075 3075 3075 3075 3075 3076 3076 3076 3076 3077 3077 3077 3077 3078 3078 3078 3079 3079 3079 3080 3080 3080 3081 3081 3081 3081 3081 3082 3082 3082 3082 3082 3082 3083 3083 3083 3083 3083 3083 3083 3083 3083 3083 3083 3083 3083 3083 3083 3083 3083 3083 3083 3083 3083 3084 3084 3084 3084 3084
3074 3074 3074 3074 3074 3073 3073 3073 3072 3072 3072 3072 3072 3072 3072 3072 3072 3072 3072 3073 3073 3073 3074 3074 3074 3074 3074 3074 3074 3074 3074 3074 3074 3074 3075 3075 3075 3076 3076 3076 3077 3077 3077 3078 3078 3078 3079 3079 3079 3079 3079 3080 3080 3080 3080 3081 3081 3081 3081 3081 3081 3081 3081 3081 3081 3081 3082 3082 3082 3082 3082 3082 3082 3082 3082 3082 3082 3082 3082 3082 3082 3082 3082 3082 3082 3082
3072 3072 3071 3071 3071 3071 3070 3070 3070 3069 3069 3069 3069 3069 3070 3070 3070 3070 3071 3071 3071 3071 3072 3072 3072 3072 3073 3072 3072 3072 3072 3073 3073 3073 3074 3074 3074 3074 3075 3075 3075 3076 3076 3076 3077 3077 3077 3078 3078 3078 3078 3079 3079 3079 3079 3079 3079 3080 3080 3080 3080 3080 3080 3080 3080 3080 3080 3080 3080 3080 3080 3080 3081 3081 3081 3081 3081 3081 3081 3081 3081 3081 3081 3081 3081 3081
3070 3069 3069 3069 3069 3068 3068 3068 3067 3067 3067 3068 3068 3068 3068 3068 3068 3069 3069 3069 3069 3070 3070 3070 3071 3071 3071 3071 3071 3071 3071 3071 3072 3072 3072 3073 3073 3074 3074 3074 3074 3075 3075 3075 3076 3076 3076 3077 3077 3077 3077 3078 3078 3078 3078 3078 3079 3079 3079 3079 3079 3079 3079 3079 3079 3079 3079 3079 3079 3079 3079 3079 3079 3079 3079 3079 3079 3079 3079 3079 3079 3079 3079 3079 3079 3079
3067 3067 3067 3066 3066 3066 3065 3065 3065 3065 3065 3065 3066 3066 3066 3066 3067 3067 3067 3068 3068 3068 3069 3069 3069 3069 3069 3069 3070 3070 3070 3070 3071 3071 3071 3072 3072 3073 3073 3073 3073 3074 3074 3074 3075 3075 3075 3075 3076 3076 3076 3076 3077 3077 3077 3077 3077 3077 3078 3078 3078 3078 3078 3078 3078 3078 3078 3078 3078 3078 3078 3078 3078 3078 3078 3078 3078 3078 3078 3078 3078 3078 3078 3078 3078 3078
3065 3064 3064 3064 3064 3063 3063 3063 3063 3063 3063 3064 3064 3064 3064 3064 3065 3065 3065 3066 3066 3066 3067 3067 3068 3068 3068 3068 3069 3069 3069 3069 3070 3070 3070 3071 3071 3072 3072 3072 3072 3073 3073 3073 3074 3074 3074 3074 3075 3075 3075 3075 3076 3076 3076 3076 3076 3076 3076 3076 3076 3076 3077 3077 3077 3077 3077 3077 3077 3077 3077 3077 3077 3077 3077 3077 3077 3077 3077 3077 3077 3077 3077 3077 3077 3077
3062 3062 3062 3061 3061 3061 3061 3061 3061 3061 3061 3062 3062 3062 3063 3063 3063 3064 3064 3064 3064 3065 3065 3065 3066 3066 3066 3067 3067 3068 3068 3068 3069 3069 3069 3069 3070 3070 3070 3071 3071 3072 3072 3072 3073 3073 3073 3074 3074 3074 3074 3074 3074 3074 3075 3075 3075 3075 3075 3075 3075 3075 3075 3075 3075 3075 3075 3075 3075 3075 3075 3075 3075 3075 3075 3075 3076 3076 3075 3075 3075 3075 3075 3075 3075 3075
3059 3059 3059 3059 3059 3059 3059 3059 3059 3059 3059 3060 3060 3060 3061 3061 3061 3062 3062 3062 3063 3063 3064 3064 3064 3065 3065 3066 3066 3067 3067 3067 3068 3068 3068 3069 3069 3069 3069 3070 3070 3070 3071 3071 3072 3072 3072 3072 3073 3073 3073 3073 3073 3073 3074 3074 3074 3074 3074 3074 3074 3074 3074 3074 3074 3074 3074 3074 3074 3074 3074 3074 3074 3074 3074 3074 3074 3074 3074 3074 3074 3074 3074 3074 3073 3073
3057 3057 3057 3057 3057 3057 3057 3057 3057 3058 3058 3058 3059 3059 3059 3059 3060 3060 3060 3061 3061 3062 3062 3063 3063 3064 3064 3065 3065 3066 3066 3066 3067 3067 3067 3068 3068 3068 3069 3069 3069 3069 3070 3070 3070 3071 3071 3071 3071 3072 3072 3072 3072 3072 3072 3072 3072 3072 3072 3073 3073 3073 3073 3073 3073 3073 3073 3073 3073 3073 3073 3073 3073 3073 3073 3073 3073 3073 3073 3072 3072 3072 3072 3072 3071 3071
3054 3054 3054 3055 3055 3055 3055 3055 3055 3055 3056 3056 3057 3057 3057 3058 3058 3058 3059 3059 3060 3060 3061 3061 3062 3063 3063 3064 3064 3064 3065 3065 3065 3066 3066 3066 3067 3067 3067 3068 3068 3068 3069 3069 3069 3069 3070 3070 3070 3070 3070 3070 3071 3071 3071 3071 3071 3071 3071 3071 3071 3071 3071 3071 3071 3071 3071 3071 3071 3071 3071 3071 3071 3071 3071 3071 3071 3071 3071 3071 3071 3070 3070 3070 3070 3069
3052 3052 3052 3052 3052 3053 3053 3053 3054 3054 3054 3054 3055 3055 3056 3056 3056 3057 3057 3058 3059 3059 3059 3060 3061 3062 3062 3063 3063 3064 3064 3064 3064 3065 3065 3065 3066 3066 3066 3067 3067 3067 3068 3068 3068 3068 3069 3069 3069 3069 3069 3069 3069 3069 3069 3069 3069 3069 3069 3069 3070 3069 3069 3069 3070 3070 3070 3070 3070 3070 3070 3069 3069 3069 3069 3069 3069 3069 3069 3069 3069 3069 3068 3068 3068 3068
3049 3049 3050 3050 3050 3050 3051 3051 3051 3052 3052 3053 3053 3054 3054 3054 3055 3055 3056 3057 3057 3058 3059 3059 3060 3060 3061 3061 3062 3062 3063 3063 3063 3064 3064 3064 3065 3065 3065 3066 3066 3066 3067 3067 3067 3067 3067 3068 3068 3068 3068 3068 3068 3068 3068 3068 3068 3068 3068 3068 3068 3068 3068 3068 3068 3068 3068 3068 3068 3068 3068 3068 3068 3068 3068 3068 3068 3068 3067 3067 3067 3067 3067 3066 3066 3066
3047 3047 3048 3048 3048 3049 3049 3049 3050 3050 3050 3051 3051 3052 3052 3053 3053 3054 3055 3055 3056 3057 3058 3058 3059 3059 3060 3060 3061 3061 3062 3062 3062 3063 3063 3063 3064 3064 3064 3064 3065 3065 3065 3066 3066 3066 3066 3066 3066 3066 3067 3067 3067 3067 3067 3067 3067 3067 3067 3067 3067 3067 3067 3067 3067 3067 3067 3067 3067 3067 3067 3066 3066 3066 3066 3066 3066 3066 3066 3065 3065 3065 3064 3064 3064 3064
3044 3045 3045 3046 3046 3047 3047 3048 3048 3048 3049 3049 3050 3050 3051 3051 3052 3053 3054 3054 3055 3056 3057 3057 3058 3058 3059 3059 3059 3060 3060 3061 3061 3062 3062 3062 3063 3063 3063 3064 3064 3064 3064 3064 3065 3065 3065 3065 3065 3065 3065 3065 3065 3065 3065 3065 3065 3065 3065 3065 3065 3065 3065 3065 3065 3065 3065 3065 3065 3065 3065 3065 3064 3064 3064 3064 3064 3064 3064 3064 3063 3063 3063 3062 3062 3062
3042 3043 3043 3044 3044 3045 3045 3046 3046 3047 3047 3048 3048 3049 3049 3050 3051 3052 3053 3054 3054 3055 3056 3056 3057 3057 3058 3058 3058 3059 3059 3060 3060 3060 3061 3061 3061 3062 3062 3062 3063 3063 3063 3063 3064 3064 3064 3064 3064 3064 3064 3064 3064 3064 3064 3064 3064 3064 3064 3064 3064 3064 3064 3064 3064 3064 3063 3063 3063 3063 3063 3063 3063 3063 3063 3062 3062 3062 3062 3061 3061 3061 3060 3060 3060 3060
3040 3041 3041 3042 3042 3043 3044 3044 3045 3045 3046 3046 3047 3047 3048 3049 3050 3051 3052 3053 3053 3054 3055 3055 3055 3056 3056 3057 3057 3058 3058 3059 3059 3059 3060 3060 3060 3060 3061 3061 3061 3062 3062 3062 3062 3062 3062 3063 3063 3063 3062 3062 3062 3062 3062 3062 3062 3062 3062 3062 3062 3062 3062 3062 3062 3062 3062 3062 3061 3061 3061 3061 3061 3061 3061 3061 3060 3060 3060 3059 3059 3059 3059 3058 3058 3058
3038 3039 3039 3040 3041 3041 3042 3043 3043 3044 3044 3045 3046 3046 3047 3048 3049 3050 3051 3052 3052 3053 3054 3054 3054 3055 3055 3056 3056 3056 3057 3057 3058 3058 3059 3059 3059 3059 3059 3060 3060 3060 3061 3061 3061 3061 3061 3061 3061 3061 3061 3061 3061 3061 3061 3061 3061 3061 3061 3060 3060 3060 3060 3060 3060 3060 3060 3060 3059 3059 3059 3059 3059 3059 3059 3059 3059 3058 3058 3058 3057 3057 3056 3056 3056 3055
3037 3037 3038 3039 3039 3040 3041 3041 3042 3043 3043 3044 3044 3045 3046 3047 3048 3049 3050 3051 3051 3052 3052 3053 3053 3054 3054 3054 3055 3055 3056 3056 3056 3057 3057 3058 3058 3058 3058 3059 3059 3059 3059 3059 3059 3059 3059 3059 3059 3059 3059 3059 3059 3059 3059 3059 3059 3059 3059 3059 3059 3059 3059 3059 3058 3058 3058 3058 3058 3058 3058 3058 3057 3057 3057 3057 3057 3056 3056 3056 3055 3055 3054 3054 3054 3053
3035 3036 3036 3037 3038 3039 3039 3040 3041 3041 3042 3043 3044 3044 3045 3046 3047 3048 3049 3049 3050 3050 3051 3051 3052 3052 3053 3053 3054 3054 3054 3055 3055 3056 3056 3056 3057 3057 3057 3057 3057 3058 3058 3058 3058 3058 3058 3058 3058 3058 3058 3058 3058 3058 3058 3058 3058 3058 3058 3057 3057 3057 3057 3057 3057 3056 3056 3056 3056 3056 3056 3056 3055 3055 3055 3055 3055 3054 3054 3054 3054 3053 3053 3052 3052 3051
3034 3034 3035 3036 3037 3037 3038 3039 3039 3040 3041 3042 3043 3044 3044 3045 3046 3047 3047 3048 3049 3049 3050 3050 3051 3051 3052 3052 3053 3053 3053 3054 3054 3054 3055 3055 3055 3056 3056 3056 3056 3056 3056 3056 3056 3056 3057 3057 3056 3056 3056 3056 3056 3056 3056 3056 3056 3056 3056 3056 3055 3055 3055 3055 3055 3055 3054 3054 3054 3054 3054 3054 3054 3054 3054 3053 3053 3053 3053 3052 3052 3051 3051 3050 3050 3049
3032 3033 3034 3035 3036 3036 3037 3038 3039 3039 3040 3041 3042 3042 3043 3044 3044 3045 3046 3047 3047 3048 3049 3049 3049 3050 3050 3051 3051 3052 3052 3053 3053 3053 3054 3054 3054 3054 3054 3054 3055 3055 3055 3055 3055 3055 3055 3055 3055 3054 3054 3054 3054 3054 3054 3054 3054 3054 3054 3054 3054 3054 3053 3053 3053 3053 3053 3053 3053 3052 3052 3052 3052 3052 3052 3051 3051 3051 3051 3050 3050 3050 3049 3049 3048 3048
3031 3032 3033 3034 3034 3035 3036 3037 3038 3038 3039 3040 3040 3041 3042 3043 3044 3044 3045 3045 3046 3047 3047 3048 3049 3049 3049 3050 3050 3050 3051 3051 3052 3052 3052 3053 3053 3053 3053 3053 3053 3053 3053 3053 3053 3053 3053 3053 3053 3053 3053 3053 3053 3053 3053 3053 3053 3052 3052 3052 3052 3052 3052 3051 3051 3051 3051 3051 3051 3051 3050 3050 3050 3050 3050 3049 3049 3049 3049 3049 3049 3048 3048 3047 3047 3046
3029 3030 3031 3032 3033 3034 3035 3035 3036 3037 3038 3039 3039 3040 3041 3041 3042 3043 3044 3044 3045 3046 3046 3047 3047 3048 3048 3049 3049 3049 3049 3050 3050 3051 3051 3051 3051 3052 3052 3052 3052 3052 3051 3051 3051 3051 3051 3051 3051 3051 3051 3051 3051 3051 3051 3051 3051 3050 3050 3050 3050 3050 3050 3050 3050 3049 3049 3049 3049 3049 3049 3049 3048 3048 3048 3048 3048 3047 3047 3047 3047 3046 3046 3045 3045 3044
3028 3029 3030 3031 3032 3033 3034 3034 3035 3036 3037 3038 3038 3039 3039 3040 3041 3042 3043 3043 3044 3044 3045 3045 3046 3046 3047 3047 3048 3048 3048 3049 3049 3049 3049 3050 3050 3050 3050 3050 3050 3050 3050 3050 3050 3049 3049 3049 3049 3049 3049 3049 3049 3049 3049 3049 3049 3049 3049 3049 3048 3048 3048 3048 3048 3048 3048 3048 3047 3047 3047 3047 3046 3046 3046 3046 3046 3045 3045 3045 3045 3044 3044 3044 3043 3043
3027 3028 3029 3030 3031 3032 3033 3033 3034 3035 3036 3036 3037 3038 3039 3039 3040 3041 3041 3042 3043 3043 3044 3044 3045 3045 3045 3046 3046 3046 3047 3047 3048 3048 3048 3048 3048 3049 3049 3049 3049 3048 3048 3048 3048 3048 3048 3048 3048 3048 3048 3048 3048 3047 3047 3047 3047 3047 3047 3046 3046 3046 3046 3046 3046 3046 3046 3046 3045 3045 3045 3044 3044 3044 3044 3044 3044 3043 3043 3043 3043 3042 3042 3042 3041 3041
3025 3027 3028 3029 3030 3031 3031 3032 3033 3034 3034 3035 3036 3037 3037 3038 3039 3039 3040 3041 3041 3042 3043 3043 3044 3044 3044 3044 3045 3045 3045 3046 3046 3046 3046 3047 3047 3047 3047 3047 3047 3047 3047 3046 3046 3046 3046 3046 3046 3046 3046 3046 3046 3046 3045 3045 3045 3045 3045 3044 3044 3044 3044 3044 3044 3044 3044 3044 3044 3043 3043 3043 3042 3042 3042 3041 3041 3041 3041 3041 3040 3040 3040 3039 3039 3039
3025 3026 3027 3028 3029 3029 3030 3031 3032 3032 3033 3034 3034 3035 3036 3037 3038 3038 3039 3040 3040 3041 3041 3042 3042 3043 3043 3043 3044 3044 3044 3044 3044 3045 3045 3045 3045 3045 3045 3045 3045 3045 3045 3045 3045 3044 3044 3044 3044 3044 3044 3044 3044 3044 3044 3044 3044 3044 3043 3043 3043 3042 3042 3042 3042 3042 3042 3042 3042 3041 3041 3040 3040 3040 3039 3039 3039 3039 3039 3038 3038 3038 3037 3037 3037 3036
3024 3025 3026 3027 3028 3029 3029 3030 3030 3031 3032 3033 3033 3034 3035 3036 3037 3037 3038 3039 3039 3039 3040 3040 3041 3041 3041 3042 3042 3042 3043 3043 3043 3043 3043 3043 3043 3043 3043 3043 3043 3043 3043 3043 3043 3043 3043 3043 3042 3042 3042 3042 3042 3042 3042 3042 3042 3042 3042 3041 3041 3041 3040 3040 3040 3039 3039 3039 3039 3039 3039 3039 3038 3038 3037 3037 3036 3036 3036 3036 3035 3035 3035 3034 3034 3034
3023 3024 3024 3025 3026 3027 3028 3028 3029 3030 3030 3031 3032 3033 3034 3035 3035 3036 3037 3038 3038 3039 3039 3039 3039 3040 3040 3040 3041 3041 3041 3041 3042 3042 3042 3042 3042 3042 3042 3041 3041 3041 3041 3041 3041 3041 3041 3041 3040 3040 3040 3040 3040 3040 3040 3039 3039 3039 3039 3039 3039 3039 3039 3038 3038 3037 3037 3037 3037 3037 3036 3036 3036 3035 3035 3034 3034 3034 3034 3033 3033 3032 3032 3032 3031 3031
3022 3022 3023 3024 3025 3026 3026 3027 3028 3029 3029 3030 3031 3032 3033 3034 3034 3035 3036 3036 3037 3037 3038 3038 3038 3039 3039 3039 3039 3039 3040 3040 3040 3040 3040 3040 3040 3040 3040 3039 3039 3039 3039 3039 3039 3039 3039 3039 3038 3038 3038 3038 3038 3038 3037 3037 3037 3037 3037 3037 3037 3037 3036 3036 3035 3035 3034 3034 3034 3034 3034 3034 3033 3033 3032 3032 3032 3031 3031 3030 3030 3030 3029 3029 3029 3029
3020 3021 3022 3023 3024 3024 3025 3026 3027 3028 3029 3029 3030 3031 3032 3032 3033 3034 3034 3035 3035 3036 3036 3036 3037 3037 3037 3037 3038 3038 3038 3038 3038 3038 3038 3038 3038 3038 3038 3038 3037 3037 3037 3037 3037 3037 3037 3036 3036 3036 3036 3036 3036 3035 3035 3035 3035 3035 3035 3035 3035 3034 3034 3034 3033 3033 3032 3032 3032 3032 3031 3031 3031 3030 3030 3029 3029 3029 3028 3028 3028 3027 3027 3027 3026 3026
3019 3020 3021 3022 3023 3023 3024 3025 3026 3027 3027 3028 3029 3030 3030 3031 3032 3032 3033 3033 3034 3034 3034 3035 3035 3035 3036 3036 3036 3036 3037 3037 3037 3037 3036 3036 3036 3036 3036 3035 3035 3035 3035 3035 3035 3035 3035 3035 3034 3034 3034 3034 3034 3033 3033 3033 3033 3033 3033 3033 3033 3032 3032 3032 3031 3031 3030 3030 3030 3029 3029 3029 3029 3028 3028 3027 3027 3026 3026 3025 3025 3024 3024 3024 3024 3023
3018 3019 3019 3020 3021 3022 3023 3024 3024 3025 3026 3027 3028 3029 3029 3030 3030 3031 3031 3032 3032 3032 3033 3033 3034 3034 3034 3034 3034 3034 3035 3035 3035 3035 3034 3034 3034 3034 3034 3034 3034 3034 3034 3033 3033 3033 3033 3033 3033 3033 3032 3032 3032 3031 3031 3031 3030 3030 3030 3030 3030 3030 3030 3029 3029 3029 3029 3028 3028 3027 3027 3026 3026 3025 3025 3024 3024 3023 3023 3022 3022 3022 3021 3021 3021 3020
3017 3017 3018 3019 3020 3021 3022 3023 3024 3024 3025 3026 3026 3027 3028 3028 3029 3029 3030 3030 3030 3031 3031 3031 3032 3032 3032 3033 3033 3033 3033 3033 3033 3033 3033 3033 3032 3032 3032 3032 3032 3032 3031 3031 3031 3031 3031 3031 3031 3031 3030 3030 3029 3029 3029 3028 3028 3028 3028 3028 3028 3027 3027 3027 3026 3026 3026 3026 3025 3025 3024 3024 3023 3023 3022 3022 3021 3020 3020 3019 3019 3019 3019 3018 3018 3018
3015 3016 3017 3018 3019 3020 3020 3021 3022 3023 3024 3024 3025 3026 3026 3027 3028 3028 3028 3029 3029 3029 3029 3029 3030 3030 3030 3030 3031 3031 3031 3031 3031 3031 3031 3031 3031 3030 3030 3030 3029 3029 3029 3029 3029 3029 3029 3029 3029 3028 3028 3028 3027 3027 3026 3026 3025 3025 3025 3025 3025 3024 3024 3024 3024 3023 3023 3023 3023 3022 3022 3021 3020 3020 3019 3019 3019 3018 3017 3017 3016 3016 3015 3015 3015 3015
3014 3015 3016 3017 3018 3019 3019 3020 3021 3022 3023 3023 3024 3024 3025 3025 3026 3026 3027 3027 3027 3027 3028 3028 3028 3028 3029 3029 3029 3029 3029 3029 3029 3029 3029 3029 3029 3029 3028 3028 3028 3027 3027 3027 3027 3027 3027 3027 3026 3026 3025 3025 3025 3024 3024 3024 3023 3023 3022 3022 3022 3022 3021 3021 3020 3020 3020 3020 3019 3019 3019 3018 3018 3017 3017 3016 3016 3015 3015 3014 3013 3013 3012 3012 3012 3012
3013 3014 3015 3016 3016 3017 3018 3019 3020 3020 3021 3022 3022 3023 3023 3024 3024 3024 3025 3025 3025 3025 3026 3026 3026 3026 3026 3027 3027 3027 3027 3027 3027 3027 3027 3027 3027 3027 3026 3026 3025 3025 3025 3025 3025 3025 3024 3024 3024 3023 3023 3022 3022 3022 3022 3021 3021 3020 3020 3019 3019 3019 3018 3018 3018 3017 3017 3017 3017 3016 3016 3015 3015 3014 3014 3014 3013 3013 3012 3011 3011 3010 3009 3009 3009 3009
3012 3013 3014 3014 3015 3016 3017 3018 3018 3019 3019 3020 3021 3021 3021 3022 3022 3023 3023 3023 3024 3024 3024 3024 3024 3024 3024 3025 3025 3025 3025 3025 3025 3025 3025 3025 3025 3025 3024 3024 3024 3024 3023 3023 3023 3023 3023 3023 3022 3021 3020 3019 3019 3020 3020 3019 3019 3018 3017 3017 3016 3016 3015 3015 3014 3014 3014 3014 3013 3013 3013 3012 3012 3011 3011 3011 3010 3010 3010 3009 3008 3007 3006 3006 3005 3005